Location: Crayja
(6.2254°N, 10.6273°W)
Time: 14:04:36
(UTC+00:00)

Lacrosse 4 Rocket - Pass Details

Date: 17 February 2020
Orbit: 537 x 622 km, 68.0° (Epoch: 05 April)

Event Time Altitude Azimuth Distance (km) Brightness Sun altitude
Exits shadow 06:16:19 - 330° (NNW) 2,507 4.3 -11.1°
Reaches altitude 10° 06:17:41 10° 326° (NW) 1,979 3.7 -10.8°
Maximum altitude 06:21:59 47° 252° (WSW) 813 1.8 -9.7°
Drops below altitude 10° 06:26:15 10° 178° (S) 1,961 4.3 -8.7°
Sets 06:28:33 0° 172° (S) 2,855 5.2 -8.1°
